Weather History for Del Bajio, Mexico

Change the Weather History Date:

Thursday, December 13, 2012

  Actual Average Record
Temperature  
Mean Temperature 60 °F -  
Max Temperature 71 °F 73 °F 86 °F (2005)
Min Temperature 48 °F 42 °F 32 °F (1997)
Degree Days  
Heating Degree Days 6    
Growing Degree Days 10 (Base 50)    
Moisture  
Dew Point 43 °F    
Average Humidity 58    
Maximum Humidity 76    
Minimum Humidity 30    
Precipitation  
Precipitation 0.00 in - - ()
Sea Level Pressure  
Sea Level Pressure 30.21 in    
Wind  
Wind Speed 1 mph ()    
Max Wind Speed 7 mph    
Max Gust Speed -    
Visibility 8.3 miles    
Events      
Averages and records for this station are not official NWS values.
T = Trace of Precipitation, MM = Missing Value Source: Averaged Metar Reports

Daily Weather History Graph

Daily Weather History Graph

Search for Another Location

Airport:

Trip Planner

Search our weather history database for the weather conditions in past years. The results will help you decide how hot, cold, wet, or windy it might be!

Date:

Astronomy

Dec. 13, 2012 Rise Set
Actual Time 7:14 AM CST 6:06 PM CST
Civil Twilight 6:50 AM CST 6:30 PM CST
Nautical Twilight 6:22 AM CST 6:58 PM CST
Astronomical Twilight 5:55 AM CST 7:25 PM CST
Moon 7:27 AM CST (12/13) 6:47 PM CST (12/13)
Length of Visible Light 11h 40m
Length of Day
10h 52m
Waxing Crescent, 0% of the Moon is Illuminated
Dec 13
Waxing Crescent
Dec 19
First Quarter
Dec 28
Full
Jan 4
Last Quarter
Jan 11
New

Hourly Weather History & Observations

Time (CST) Temp. Dew Point Humidity Pressure Visibility Wind Dir Wind Speed Gust Speed Precip Events Conditions
12:49 AM 53.6 °F 41.0 °F 62% 30.30 in 8.0 mi NE 6.9 mph - N/A   Mostly Cloudy
1:50 AM 51.8 °F 41.0 °F 67% 30.29 in 8.0 mi Calm Calm - N/A   Scattered Clouds
2:47 AM 51.8 °F 41.0 °F 67% 29.95 in 8.0 mi Calm Calm - N/A   Scattered Clouds
3:50 AM 50.0 °F 39.2 °F 66% 30.27 in 8.0 mi Calm Calm - N/A   Scattered Clouds
4:46 AM 48.2 °F 39.2 °F 71% 30.18 in 8.0 mi Calm Calm - N/A   Scattered Clouds
5:50 AM 48.2 °F 41.0 °F 76% 30.04 in 8.0 mi Calm Calm - N/A   Scattered Clouds
6:45 AM 48.2 °F 41.0 °F 76% 30.30 in 8.0 mi Calm Calm - N/A   Mostly Cloudy
7:49 AM 50.0 °F 41.0 °F 71% 30.32 in 10.0 mi Calm Calm - N/A   Overcast
8:42 AM 53.6 °F 44.6 °F 72% 30.12 in 8.0 mi Calm Calm - N/A   Overcast
9:43 AM 60.8 °F 46.4 °F 59% 30.38 in 8.0 mi Calm Calm - N/A   Overcast
10:42 AM 62.6 °F 46.4 °F 55% 30.38 in 8.0 mi Calm Calm - N/A   Overcast
11:44 AM 64.4 °F 46.4 °F 52% 30.11 in 8.0 mi Calm Calm - N/A   Overcast
12:43 PM 68.0 °F 46.4 °F 46% 30.32 in 9.0 mi Calm Calm - N/A   Overcast
1:45 PM 69.8 °F 46.4 °F 43% 30.29 in 9.0 mi Calm Calm - N/A   Overcast
2:49 PM 71.6 °F 44.6 °F 38% 29.96 in 9.0 mi Calm Calm - N/A   Overcast
3:44 PM 69.8 °F 44.6 °F 40% 30.24 in 10.0 mi Calm Calm - N/A   Overcast
6:48 PM 64.4 °F 32.0 °F 30% 30.24 in 8.0 mi Calm Calm - N/A   Mostly Cloudy
7:42 PM 60.8 °F 44.6 °F 55% 30.27 in 8.0 mi Calm Calm - N/A   Mostly Cloudy
8:50 PM 60.8 °F 42.8 °F 52% 30.04 in 8.0 mi Calm Calm - N/A   Mostly Cloudy
9:43 PM 57.2 °F 42.8 °F 59% 30.30 in 8.0 mi NE 4.6 mph - N/A   Mostly Cloudy
10:41 PM 55.4 °F 42.8 °F 63% 30.30 in 8.0 mi NNE 4.6 mph - N/A   Mostly Cloudy
11:45 PM 60.8 °F 42.8 °F 52% 30.06 in 8.0 mi Calm Calm - N/A   Mostly Cloudy